Weather History for Savannah Hunter, GA

Change the Weather History Date:

Tuesday, February 5, 2013

  Actual Average Record
Temperature  
Mean Temperature 55 °F -  
Max Temperature 71 °F 61 °F 80 °F (2008)
Min Temperature 39 °F 40 °F 20 °F (2009)
Degree Days  
Heating Degree Days 10    
Growing Degree Days 5 (Base 50)    
Moisture  
Dew Point 42 °F    
Average Humidity 79    
Maximum Humidity 100    
Minimum Humidity 37    
Precipitation  
Precipitation 0.00 in - - ()
Sea Level Pressure  
Sea Level Pressure 30.03 in    
Wind  
Wind Speed 2 mph (SW)    
Max Wind Speed 14 mph    
Max Gust Speed 18 mph    
Visibility 7 miles    
Events      
Averages and records for this station are not official NWS values.
T = Trace of Precipitation, MM = Missing Value Source: NWS Daily Summary

Daily Weather History Graph

Daily Weather History Graph

Search for Another Location

Airport:

Trip Planner

Search our weather history database for the weather conditions in past years. The results will help you decide how hot, cold, wet, or windy it might be!

Date:

Astronomy

Feb. 05, 2013 Rise Set
Actual Time 7:15 AM EST 6:02 PM EST
Civil Twilight 6:49 AM EST 6:27 PM EST
Nautical Twilight 6:20 AM EST 6:56 PM EST
Astronomical Twilight 5:52 AM EST 7:25 PM EST
Moon 2:49 AM EST (2/5) 1:25 PM EST (2/5)
Length of Visible Light 11h 38m
Length of Day
10h 47m
Waning Crescent, 27% of the Moon is Illuminated
Feb 5
Waning Crescent
Feb 10
New
Feb 17
First Quarter
Feb 25
Full
Mar 4
Last Quarter

Hourly Weather History & Observations

Time (EST) Temp. Windchill Dew Point Humidity Pressure Visibility Wind Dir Wind Speed Gust Speed Precip Events Conditions
12:55 AM 41.7 °F - 39.2 °F 91% 30.05 in 10.0 mi Calm Calm - N/A   Mostly Cloudy
1:55 AM 41.7 °F - 39.4 °F 91% 30.04 in 10.0 mi Calm Calm - N/A   Overcast
2:55 AM 40.3 °F - 38.7 °F 94% 30.02 in 10.0 mi Calm Calm - N/A   Partly Cloudy
3:55 AM 39.2 °F - 37.4 °F 93% 30.01 in 10.0 mi Calm Calm - N/A   Scattered Clouds
4:18 AM 39.2 °F - 37.4 °F 93% 30.02 in 2.0 mi Calm Calm - N/A   Partly Cloudy
4:19 AM 39.2 °F - 37.4 °F 93% 30.01 in 1.8 mi Calm Calm - N/A   Partly Cloudy
4:22 AM 39.2 °F - 39.2 °F 100% 30.01 in 1.5 mi Calm Calm - N/A   Partly Cloudy
4:23 AM 39.2 °F - 39.2 °F 100% 30.01 in 1.5 mi Calm Calm - N/A   Partly Cloudy
4:24 AM 39.2 °F - 39.2 °F 100% 30.01 in 1.2 mi Calm Calm - N/A   Partly Cloudy
4:29 AM 39.2 °F - 39.2 °F 100% 30.02 in 1.5 mi Calm Calm - N/A   Clear
4:30 AM 39.2 °F - 37.4 °F 93% 30.02 in 1.5 mi Calm Calm - N/A   Clear
4:31 AM 39.2 °F - 37.4 °F 93% 30.02 in 1.5 mi Calm Calm - N/A   Clear
4:33 AM 39.2 °F - 37.4 °F 93% 30.02 in 1.8 mi Calm Calm - N/A   Clear
4:34 AM 39.2 °F - 37.4 °F 93% 30.02 in 2.5 mi Calm Calm - N/A   Clear
4:35 AM 39.2 °F - 37.4 °F 93% 30.02 in 3.0 mi Calm Calm - N/A   Clear
4:55 AM 39.2 °F - 37.9 °F 95% 30.01 in 10.0 mi Calm Calm - N/A   Partly Cloudy
5:55 AM 41.4 °F - 39.7 °F 94% 30.03 in 10.0 mi Calm Calm - N/A   Mostly Cloudy
6:55 AM 42.8 °F - 40.6 °F 92% 30.06 in 10.0 mi Calm Calm - N/A   Mostly Cloudy
7:55 AM 46.0 °F 44.8 °F 41.4 °F 84% 30.07 in 10.0 mi SW 3.5 mph - N/A   Mostly Cloudy
8:55 AM 48.2 °F - 43.3 °F 83% 30.09 in 10.0 mi WSW 4.6 mph - N/A   Scattered Clouds
9:55 AM 54.1 °F - 43.2 °F 66% 30.09 in 10.0 mi WSW 5.8 mph - N/A   Partly Cloudy
10:55 AM 61.7 °F - 46.8 °F 58% 30.08 in 10.0 mi Variable 6.9 mph - N/A   Clear
11:55 AM 65.8 °F - 46.9 °F 50% 30.06 in 10.0 mi West 9.2 mph - N/A   Clear
12:55 PM 68.5 °F - 46.4 °F 45% 30.02 in 10.0 mi WSW 11.5 mph - N/A   Clear
1:55 PM 70.0 °F - 45.7 °F 42% 29.99 in 10.0 mi Variable 6.9 mph - N/A   Clear
2:55 PM 71.8 °F - 43.9 °F 37% 29.99 in 10.0 mi West 13.8 mph 18.4 mph N/A   Clear
3:55 PM 71.2 °F - 45.7 °F 40% 29.97 in 10.0 mi West 11.5 mph - N/A   Clear
4:55 PM 64.6 °F - 49.5 °F 58% 29.98 in 10.0 mi SSE 12.7 mph - N/A   Clear
5:55 PM 61.2 °F - 49.1 °F 65% 29.99 in 10.0 mi SSE 9.2 mph - N/A   Clear
6:55 PM 59.2 °F - 48.4 °F 67% 30.00 in 10.0 mi South 6.9 mph - N/A   Mostly Cloudy
7:55 PM 57.9 °F - 47.7 °F 69% 30.01 in 10.0 mi South 8.1 mph - N/A   Scattered Clouds
8:55 PM 58.3 °F - 47.5 °F 67% 30.02 in 10.0 mi South 5.8 mph - N/A   Mostly Cloudy
9:55 PM 56.8 °F - 47.7 °F 71% 30.03 in 10.0 mi SSW 4.6 mph - N/A   Partly Cloudy
10:55 PM 56.1 °F - 48.9 °F 77% 30.05 in 10.0 mi SW 4.6 mph - N/A   Overcast
11:55 PM 55.8 °F - 48.7 °F 77% 30.04 in 10.0 mi Calm Calm - N/A   Mostly Cloudy